This is the latest recevied weather packets stored in our database for station/object DO0SOB-11. If no packets are shown the sender has not sent any weather packets the latest 10 day(s).
| Time | Temp. | Humidity | Pressure | Rain* | Wind** | Luminosity | Snow |
|---|---|---|---|---|---|---|---|
| 1777441454 | 5.56° C | 100% | 986.4 hPa | - | - | - | - |
| 1777440554 | 5° C | 100% | 986.3 hPa | - | - | - | - |
| 1777439653 | 4.44° C | 100% | 986.3 hPa | - | - | - | - |
| 1777438753 | 4.44° C | 100% | 986.2 hPa | - | - | - | - |
| 1777437853 | 3.89° C | 100% | 986.1 hPa | - | - | - | - |
| 1777436953 | 3.33° C | 100% | 986 hPa | - | - | - | - |
| 1777436053 | 3.33° C | 100% | 986 hPa | - | - | - | - |
| 1777435153 | 2.78° C | 100% | 985.9 hPa | - | - | - | - |
| 1777434253 | 3.33° C | 100% | 985.9 hPa | - | - | - | - |
| 1777433353 | 3.89° C | 100% | 985.9 hPa | - | - | - | - |
| 1777432453 | 3.89° C | 100% | 985.7 hPa | - | - | - | - |
| 1777431553 | 4.44° C | 100% | 985.7 hPa | - | - | - | - |
| 1777430653 | 4.44° C | 100% | 985.8 hPa | - | - | - | - |
| 1777427052 | 5° C | 100% | 985.8 hPa | - | - | - | - |
| 1777426152 | 5.56° C | 100% | 985.7 hPa | - | - | - | - |
| 1777425252 | 6.11° C | 100% | 985.8 hPa | - | - | - | - |
| 1777424352 | 6.11° C | 100% | 985.9 hPa | - | - | - | - |
| 1777423452 | 6.11° C | 100% | 985.8 hPa | - | - | - | - |
| 1777422552 | 5.56° C | 100% | 985.8 hPa | - | - | - | - |
| 1777421652 | 6.67° C | 100% | 985.8 hPa | - | - | - | - |
| 1777420752 | 6.11° C | 100% | 985.7 hPa | - | - | - | - |
| 1777419852 | 6.67° C | 100% | 985.7 hPa | - | - | - | - |
| 1777418952 | 6.67° C | 100% | 985.6 hPa | - | - | - | - |
| 1777418052 | 6.67° C | 98% | 985.6 hPa | - | - | - | - |
| 1777417152 | 6.67° C | 97% | 985.6 hPa | - | - | - | - |
* Rain since midnight (hover to see other rain measurements)
** Current wind speed in m/s (hover to see current wind gust speed)